Location: Cisewo
(53.3833°N, 14.9000°E)
Time: 13:07:43
(UTC+00:00)

OBJECT-B - Pass Details

Date: 18 April 2021
Orbit: 415 x 424 km, 97.0° (Epoch: 25 April)

Event Time Altitude Azimuth Distance (km) Brightness Sun altitude
Rises 19:47:06 0° 209° (SSW) 2,361 4.4 -13.6°
Reaches altitude 10° 19:49:47 10° 235° (SW) 1,506 3.7 -13.9°
Maximum altitude 19:51:39 14° 270° (W) 1,269 3.8 -14.1°
Drops below altitude 10° 19:53:31 10° 306° (NW) 1,518 5.0 -14.3°
Sets 19:56:15 0° 332° (NNW) 2,393 6.1 -14.6°
